Regional Weather Roundup
Issued by NWS Upton, NY

Home | Current Version | Previous Version | Text Only | Print | Product List | Glossary On
Versions: 1 2 3 4 5 6 7 8 9 10 11 12 13 14 15 16 17 18 19 20 21 22 23 24 25 26 27 28 29 30 31 32 33 34 35 36 37 38 39 40 41 42 43 44 45 46 47 48 49 50
000
ASUS41 KOKX 220505
RWROKX

REGIONAL WEATHER ROUNDUP
NATIONAL WEATHER SERVICE NEW YORK NY
1200 AM EST SAT NOV 22 2014

NOTE: "FAIR" INDICATES FEW OR NO CLOUDS BELOW 12,000 FEET WITH NO
SIGNIFICANT WEATHER AND/OR OBSTRUCTIONS TO VISIBILITY.

NYZ071-072-176-178-NJZ106-104-220600-
NEW YORK CITY METRO AREA


CITY           SKY/WX    TMP DP  RH WIND       PRES   REMARKS
CENTRAL PARK   CLEAR     31   8  38 CALM      30.52S
LAGUARDIA APRT CLEAR     32   9  38 W6        30.51S WCI  26
KENNEDY INTL   CLEAR     29  10  45 W5        30.52S WCI  24
NEWARK/LIBERTY CLEAR     28  11  49 SW3       30.52R
BRNX BOT. GARD   N/A    N/A N/A N/A CALM      30.50F
TETERBORO      CLEAR     26  12  55 SW3       30.51R
$$

NYZ177-179-078>081-220600-
LONG ISLAND NEW YORK

CITY           SKY/WX    TMP DP  RH WIND       PRES   REMARKS
FARMINGDALE    CLEAR     28  12  51 NW3       30.50R
ISLIP          CLEAR     27  11  51 W5        30.48R WCI  22
SHIRLEY        CLEAR     25  12  58 W5        30.50R WCI  19
WESTHAMPTON    CLEAR     15   6  67 W5        30.50S WCI   8
MONTAUK POINT    N/A     32  14  47 W8        30.48R WCI  25
$$

NYZ052-065-067-220600-
HUDSON VALLEY

CITY           SKY/WX    TMP DP  RH WIND       PRES   REMARKS
WHITE PLAINS   CLEAR     25  10  53 CALM      30.47R
NEWBURGH       CLEAR     21  12  68 W7        30.47R WCI  13
MONTGOMERY     CLEAR     18  10  71 SW3       30.47R
POUGHKEEPSIE   CLEAR     22  12  65 SW3       30.48R
ALBANY         FAIR      17  10  74 CALM      30.43S
$$

NJZ001-105-106-008-010-013-015-019>022-104-220600-
NEW JERSEY

CITY           SKY/WX    TMP DP  RH WIND       PRES   REMARKS
NEWARK/LIBERTY CLEAR     28  11  49 SW3       30.52R
TETERBORO      CLEAR     26  12  55 SW3       30.51R
CALDWELL       CLEAR     21  10  62 CALM      30.51S
MORRISTOWN       N/A     21  16  79 CALM      30.50S
SOMERVILLE     CLEAR     18  11  74 CALM      30.50S
SUSSEX         CLEAR     15  11  83 CALM      30.47R
ANDOVER          N/A     19  14  81 S3        30.48R
TRENTON        CLEAR     25   9  50 W5        30.51S WCI  19
MILLVILLE      CLEAR     17  12  80 CALM      30.53F
ATLANTIC CITY  CLEAR     20  11  68 CALM      30.54S
WRIGHTSTOWN    CLEAR     20  12  69 S3        30.50S
TOMS RIVER     CLEAR     16  10  79 CALM      30.53F
BELMAR         CLEAR     25   9  50 W6        30.51R WCI  18
$$

PAZ047>061-062-071-220600-
EASTERN PENNSYLVANIA

CITY           SKY/WX    TMP DP  RH WIND       PRES   REMARKS
PHILADELPHIA   CLEAR     30   9  41 NW3       30.55R
ALLENTOWN      CLEAR     19  10  68 SW5       30.50S WCI  12
SCRANTON       PTCLDY    23   9  55 SW3       30.45R
$$

CTZ002-004>006-009-010-012-RIZ004-006-007-MAZ004-011-015-220600-
SOUTHERN NEW ENGLAND
 IN CT

CITY           SKY/WX    TMP DP  RH WIND       PRES   REMARKS
BRADLEY INTL   CLEAR     25  10  53 CALM      30.45R
HARTFORD       CLEAR     24  11  57 S3        30.47S
DANBURY        CLEAR     18  10  71 W5        30.48R WCI  11
WTRBRY/OXFORD  CLEAR     23   7  50 CALM      30.44R
BRIDGEPORT     CLEAR     29  13  51 W6        30.49R WCI  23
MERIDEN        CLEAR     18  10  71 CALM      30.48R
NEW HAVEN      CLEAR     32  11  41 CALM      30.48S
CHESTER        FAIR      25  10  54 SW5       30.46R WCI  19
GROTON         CLEAR     25  11  55 W6        30.48R WCI  18
WILLIMANTIC    CLEAR     24  10  55 W3        30.45S

 IN RI

CITY           SKY/WX    TMP DP  RH WIND       PRES   REMARKS
PROVIDENCE     CLEAR     25   9  50 W10       30.45R WCI  15
BLOCK ISLAND   CLEAR     30  10  43 NW14G20   30.44F WCI  20
WESTERLY       CLEAR     25   9  50 CALM      30.47S

 IN MA

CITY           SKY/WX    TMP DP  RH WIND       PRES   REMARKS
BOSTON         CLEAR     28   6  39 W13       30.42R WCI  17
WORCESTER      CLEAR     20   7  57 SW8       30.37R WCI  10
WESTFIELD      CLEAR     20  10  65 S3        30.44R
PROVINCETOWN   PTCLDY    30  10  43 W16G25    30.40R WCI  19
NANTUCKET      CLEAR     31   8  38 NW16G23   30.42R WCI  20
$$

ANZ330-335-338-340-345-350-353-355-220600-
COASTAL MARINE OBSERVATIONS


STATION/POSITION TIME  SKY/WX   TEMP    WIND        PRES    VSBY  WAVE
                                AIR SEA DIR/SP/G                  HT/PER
                 (UTC)          (F)     (DEG/KT/KT) (MB)    (MI)  (FT/S)
NY HARB ENTRANCE 0500            36 56  300/ 12/ 16 1033.2          2/ 3
4S FIRE IS       0500               53                N/A           2/ 3
20S FIRE ISLAND  0500            36 54  320/ 14/ 17 1032.8          3/ 4
23SW MTP         0500                                 N/A           4/ 4
HUDSON CANYON    0500            38 58  320/ 14/ 21 1032.3          5/ 6
EXECUTION ROCKS  0500            32 47  290/  6/ 10   N/A
WESTERN LI SOUND 0500            33     290/ 12/ 14   N/A           0
CENTRAL LI SOUND 0400            32 51  280/  8/ 14   N/A           2/ 4
EASTERN LI SOUND 0400            32 53  300/ 12/ 17   N/A
ROBBINS REEF     0500            32     240/  7/  9 1032.1
$$


>>>>>>>>>>>>>>>>>>>>>>>>>>>> KEY <<<<<<<<<<<<<<<<<<<<<<<<<<<
>                                                          <
>     SKY/WX - SKY CONDITION/PRESENT WEATHER               <
>     TMP    - TEMPERATURE IN FAHRENHEIT                   <
>     DP     - DEWPOINT IN FAHRENHEIT                      <
>     RH     - RELATIVE HUMIDITY IN PERCENT                <
>     WIND   - DIRECTION AND SPEED IN MPH                  <
>     PRES   - MEAN SEA LEVEL PRESSURE IN INCHES OF HG     <
>     WCI    - WIND CHILL INDEX                            <
>     VSB    - VISIBILITY IN MILES                         <
>     HX     - HEAT INDEX                                  <
>     TC     - TEMPERATURE IN CELSIUS                      <
>     VRB    - VARIABLE WIND DIRECTION                     <
>                                                          <
>>>>>>>>>>>>>>>>>>>>>>>>>>>> KEY <<<<<<<<<<<<<<<<<<<<<<<<<<<





USA.gov is the U.S. government's official web portal to all federal, state and local government web resources and services.